Theta_e
309 310 311 313 316 320 321 322 323 324 325 325 321 315 311 309 308 308 307 306 305 306 304 304 303 303 302 301 300 299 298 298 299 297 297 298 300 298 299 300 301 303 303
306 308 309 309 313 317 319 321 322 320 319 318 315 313 310 308 308 307 305 303 301 301 300 299 299 298 298 298 297 296 296 296 297 294 293 291 294 296 298 299 300 300 300
305 306 306 308 309 310 311 313 314 314 314 313 313 311 311 308 305 304 302 301 299 298 297 296 296 296 296 295 294 294 293 293 294 295 292 289 288 291 295 296 297 295 296
306 306 307 307 307 308 310 311 312 312 313 312 310 307 303 301 302 301 300 299 298 295 295 295 294 293 294 292 292 294 292 292 291 293 295 292 291 288 288 293 293 294 293
305 305 306 308 309 308 307 306 307 307 307 306 305 303 301 300 300 299 297 296 296 294 294 293 292 292 292 291 291 291 291 292 291 291 290 290 290 290 288 285 287 290 291
305 306 307 308 307 307 306 304 303 303 303 302 301 300 298 297 296 294 293 293 293 293 292 293 291 291 291 290 290 290 290 290 289 290 289 289 286 286 286 286 286 286 289
305 305 305 305 305 304 303 303 302 300 300 299 298 297 296 294 292 292 291 290 290 290 289 290 289 289 289 290 289 289 288 288 288 288 288 289 288 289 289 287 285 285 287
304 304 304 304 304 304 302 301 299 298 297 296 295 294 294 293 291 290 290 289 288 288 288 288 288 288 288 288 288 288 288 287 287 286 287 288 288 289 288 287 286 283 284
304 304 305 305 304 302 301 299 298 297 296 294 293 291 291 290 289 289 289 288 288 289 288 287 287 287 287 287 287 286 286 286 285 286 286 286 288 288 288 288 287 285 281
304 304 305 304 303 302 301 299 297 295 294 293 291 290 289 289 289 288 287 287 287 287 287 286 286 286 286 286 285 285 286 285 285 286 285 286 287 287 287 287 287 286 283
304 304 304 304 302 301 299 297 295 294 293 292 290 289 288 288 288 287 286 286 286 286 286 286 285 285 285 285 284 284 285 284 284 285 285 286 286 286 286 286 286 285 284
304 304 304 302 300 299 297 296 294 293 292 291 289 289 288 287 286 286 286 286 285 285 285 285 285 285 285 285 284 283 284 283 283 284 284 285 287 285 286 285 284 284 284
303 303 302 300 299 298 297 295 294 291 291 290 289 288 287 286 285 285 286 285 285 284 285 285 284 284 285 285 284 284 283 283 284 284 284 284 284 284 284 284 283 284 285
304 302 302 299 298 298 296 294 292 291 289 289 288 286 285 285 285 285 285 285 285 284 284 284 285 285 285 285 285 284 283 283 284 284 284 284 284 284 284 284 284 285 284
303 302 301 299 298 296 295 293 291 289 289 287 287 286 285 285 285 285 285 285 284 284 284 284 284 284 285 286 284 284 283 283 283 283 284 285 287 289 288 285 285 284 283
303 302 302 300 298 295 293 292 290 288 288 286 286 286 285 285 285 285 284 283 283 283 283 283 283 283 285 289 289 288 283 283 283 282 283 284 286 286 289 289 289 288 285
302 301 301 300 297 295 293 290 288 287 286 285 285 285 285 284 284 284 283 282 282 282 282 282 282 281 281 288 289 289 284 283 282 282 282 283 284 285 284 287 289 288 289
302 302 301 300 297 294 292 289 287 286 286 285 284 285 284 283 283 282 281 281 281 281 281 281 281 280 282 288 288 288 283 283 282 283 283 282 282 284 285 285 284 285 283
300 300 300 296 294 292 288 287 286 285 285 284 284 284 283 281 281 280 280 280 280 280 280 280 280 279 280 287 288 286 283 282 282 283 283 284 283 287 288 285 283 281 281
299 297 295 294 291 288 288 286 284 283 283 283 283 282 282 281 280 280 279 280 280 281 281 281 280 282 280 285 288 287 283 281 282 283 283 286 285 287 288 284 281 279 278
294 293 292 290 288 287 287 284 283 281 282 283 282 282 282 281 280 280 280 280 279 279 279 279 279 279 280 282 287 287 283 282 282 282 282 282 286 288 287 286 280 280 282
292 292 289 287 287 288 285 282 280 281 282 282 282 281 280 281 282 280 280 280 278 277 277 278 278 279 280 285 285 287 286 286 282 281 281 282 286 285 285 283 284 284 283
291 290 287 286 285 285 283 280 280 282 282 280 280 280 280 280 281 280 279 278 278 277 277 277 278 279 281 281 285 286 286 286 283 282 284 286 284 283 281 282 283 282 277
290 288 286 284 282 281 282 281 282 282 281 279 279 279 279 280 280 280 279 278 277 277 277 278 278 278 279 279 280 282 282 284 282 284 282 282 281 281 280 279 278 277 277
289 288 286 285 282 282 281 281 281 281 279 278 278 278 279 279 278 279 278 278 278 280 280 279 279 278 278 280 284 284 282 282 283 282 278 276 276 275 276 276 276 277 277
289 288 286 283 282 281 280 281 281 280 278 277 278 278 278 278 278 277 278 283 284 285 285 285 283 282 284 285 285 285 285 285 284 278 275 274 275 274 275 275 275 276 277
Wind_Speed
9 6 5 6 6 6 7 7 8 8 6 4 6 6 5 4 5 5 7 7 7 7 7 5 6 5 5 5 6 4 6 5 5 4 6 7 5 5 7 10 10 8 11
9 6 6 7 7 6 8 9 8 9 8 6 5 5 5 5 5 4 6 7 7 8 7 6 5 6 4 6 6 6 4 3 5 3 6 5 5 5 13 8 7 10 5
12 8 7 8 8 8 8 8 8 9 9 9 8 6 5 4 4 4 4 5 7 7 7 7 6 6 5 5 5 5 6 4 4 6 2 5 3 12 4 9 6 11 12
12 9 9 8 8 6 7 7 7 7 7 7 6 7 5 5 3 3 4 5 7 7 7 6 6 5 4 6 4 5 4 5 5 4 3 4 5 7 10 2 12 9 11
13 10 10 9 8 7 7 7 8 8 8 8 8 7 7 4 3 4 6 6 6 7 6 6 6 5 4 5 6 6 6 3 3 3 3 5 4 6 8 15 6 10 7
12 11 10 9 7 7 7 7 8 8 8 9 9 9 8 7 5 5 4 4 4 4 6 6 5 5 4 4 4 4 6 5 4 4 4 5 4 8 10 13 15 15 10
13 12 10 9 7 8 7 7 7 8 8 9 8 8 8 8 7 5 4 5 4 3 4 5 5 3 4 5 5 5 6 5 5 5 5 5 5 7 9 9 14 14 12
12 12 10 9 9 8 8 8 8 8 8 8 8 7 8 5 4 5 4 3 3 2 4 5 5 6 6 5 5 4 4 6 5 8 6 6 7 6 6 9 10 16 15
13 12 10 10 9 8 8 8 8 8 8 8 7 7 7 7 5 6 5 3 3 3 5 6 6 6 6 6 7 4 6 6 5 7 6 7 7 7 6 6 9 9 18
14 11 11 10 7 8 8 9 8 8 7 8 7 6 6 6 5 5 5 5 4 5 5 5 6 6 6 6 6 5 6 8 6 7 9 10 8 8 8 7 7 8 11
14 13 11 9 9 8 8 8 8 8 7 7 7 7 6 5 5 5 5 4 5 5 5 6 6 6 6 6 6 6 9 10 7 10 12 13 12 10 8 9 7 9 10
12 12 11 10 9 8 8 8 7 7 7 7 7 7 5 6 5 4 4 5 5 5 6 6 6 6 6 6 7 7 9 7 10 13 14 15 11 14 12 7 11 8 10
11 10 11 10 9 8 8 7 7 7 7 7 7 6 6 5 5 5 4 5 5 5 6 6 6 6 7 7 6 9 6 9 11 13 14 16 15 15 10 9 10 11 11
13 11 11 9 8 8 8 8 8 7 6 6 7 6 5 4 3 3 4 5 5 6 6 6 6 6 7 6 10 6 7 8 11 13 15 15 16 13 13 13 13 11 12
13 12 11 9 8 8 8 8 8 7 6 6 7 5 4 3 2 3 4 5 6 6 6 7 7 7 7 8 10 10 8 9 11 14 15 15 18 27 24 14 14 15 14
13 11 11 10 10 9 8 8 8 7 7 6 6 4 3 2 2 3 5 6 6 7 6 7 7 7 7 18 22 19 10 9 12 14 14 15 19 17 27 28 33 26 16
11 11 10 9 8 9 10 9 8 7 7 6 5 4 2 2 2 4 5 6 6 6 7 7 7 7 6 20 23 23 10 8 11 13 14 14 11 19 16 24 27 21 24
11 9 8 8 9 9 9 9 8 7 6 5 4 3 1 2 4 4 6 6 5 6 6 7 7 7 8 21 22 23 9 10 11 13 14 14 16 17 22 19 16 13 15
8 8 8 10 11 9 10 10 8 7 6 5 4 3 3 3 4 6 6 6 5 6 5 6 8 8 8 18 22 19 10 11 12 12 12 14 18 25 32 21 17 19 15
9 11 11 11 11 9 9 9 7 6 5 4 3 2 1 3 5 5 6 5 5 7 6 10 8 11 10 15 22 19 10 12 11 12 12 22 23 32 32 21 19 16 16
11 11 9 9 8 8 8 8 7 6 5 3 2 1 3 4 4 5 4 5 6 6 7 8 8 7 9 10 23 26 14 10 12 11 11 11 28 31 32 32 14 19 23
8 8 10 9 7 7 8 7 7 6 4 3 0 3 3 3 4 5 4 6 6 6 6 8 8 6 8 16 20 26 25 25 13 13 12 15 30 32 30 22 31 30 26
7 8 9 9 6 7 7 7 6 5 3 1 2 3 4 5 4 5 6 5 5 5 6 7 8 9 8 8 21 24 26 25 18 12 23 30 29 26 20 26 29 26 11
6 7 8 8 7 6 6 7 6 4 2 1 3 4 5 6 5 4 4 4 4 5 6 7 8 8 9 9 9 10 11 18 15 19 11 18 22 22 21 17 14 10 11
5 6 7 7 7 6 6 5 5 4 3 4 4 5 3 5 5 5 4 4 5 7 9 7 8 9 10 10 22 21 15 14 18 21 10 11 11 11 12 11 12 11 11
5 6 7 8 7 7 6 6 5 4 4 3 4 4 3 4 4 5 7 10 15 20 20 21 16 10 20 25 27 28 29 30 29 12 11 11 11 12 12 13 13 12 15
Wind_Direction
116 134 135 113 90 88 111 103 106 114 106 101 100 88 91 78 65 60 63 54 44 50 39 26 31 21 16 26 14 354 354 331 339 330 321 289 298 333 349 337 326 325 328
122 154 132 102 88 82 65 59 65 72 73 77 86 95 98 92 98 80 65 65 50 39 48 35 21 26 16 25 13 14 344 322 339 339 310 332 309 8 332 299 307 307 325
139 152 120 108 88 73 68 73 74 77 82 91 95 99 94 73 69 74 69 60 65 46 39 38 25 23 23 25 2 13 7 329 328 359 339 340 306 316 276 306 300 328 319
135 145 129 103 92 90 85 83 85 102 115 125 126 115 105 106 110 103 98 88 77 61 33 34 28 30 27 24 0 358 352 359 326 335 356 306 290 312 314 294 321 296 326
138 137 124 117 109 90 87 79 73 66 67 76 86 93 97 96 84 76 76 82 74 78 46 27 25 31 28 9 359 348 346 321 314 306 319 315 300 310 303 304 306 297 298
132 122 115 109 109 100 93 91 86 75 69 72 70 80 89 86 75 58 53 44 63 59 40 20 13 16 10 354 340 327 335 313 311 306 308 297 303 308 304 298 308 304 306
134 130 132 131 133 121 115 110 97 89 81 79 77 78 81 83 71 66 55 48 37 31 20 19 3 354 352 349 341 339 322 308 315 310 306 289 301 297 291 302 301 300 306
139 141 145 141 136 139 133 117 111 104 96 92 85 76 77 80 73 67 57 44 50 25 23 1 358 352 346 340 338 331 322 317 315 309 294 301 291 289 299 299 305 307 302
146 151 144 138 143 136 135 125 116 110 107 103 94 86 78 75 76 61 57 32 28 15 10 358 354 343 339 339 338 329 316 315 302 289 291 293 295 292 286 295 294 294 306
150 152 145 141 141 136 127 124 125 120 111 101 100 93 86 76 71 70 47 33 7 21 354 350 347 337 334 332 336 323 310 309 298 312 309 301 299 298 296 291 300 298 296
157 151 144 140 129 123 131 125 119 121 115 111 99 90 80 68 67 62 39 20 6 359 350 344 335 329 328 328 331 317 311 312 313 320 310 309 308 302 308 302 294 296 290
152 147 140 132 131 138 135 136 136 124 118 113 104 97 83 68 58 47 30 14 1 347 339 333 329 324 322 320 317 314 309 313 327 319 313 308 312 306 301 294 296 293 293
142 145 138 141 146 148 146 142 133 124 123 113 109 98 80 63 46 35 16 0 349 333 323 329 321 316 312 311 309 306 319 325 320 313 310 308 306 300 297 295 295 291 290
152 152 150 150 152 150 146 142 124 121 116 108 102 92 81 64 45 19 1 341 330 325 322 308 299 300 300 306 307 305 314 312 314 308 307 303 297 299 303 296 292 296 299
161 159 150 153 152 146 141 131 123 121 127 113 100 96 85 66 34 1 343 324 318 305 296 297 301 299 307 308 314 315 312 314 316 308 302 296 302 307 304 309 311 307 302
162 149 150 155 152 145 138 125 124 123 120 115 115 105 84 31 16 347 314 307 301 300 299 304 304 308 309 315 314 315 318 317 310 306 304 302 307 305 317 313 305 305 312
151 151 156 151 141 138 131 129 125 125 118 117 115 115 90 6 341 314 313 307 306 308 309 309 309 302 302 312 317 320 315 309 304 300 307 307 312 314 306 300 307 299 305
150 141 137 127 123 118 119 116 117 117 119 125 130 119 101 352 330 319 311 313 306 309 306 303 298 294 298 315 319 318 316 300 293 298 300 304 309 306 306 309 307 300 301
97 107 106 111 107 107 109 111 108 118 133 130 120 83 29 339 320 313 309 312 320 313 300 300 301 299 302 318 321 319 308 303 300 300 304 309 307 305 312 315 309 306 309
75 90 95 98 101 109 109 113 128 136 132 107 81 66 312 304 297 299 322 308 314 300 304 304 299 304 314 312 318 324 318 309 310 309 309 306 311 312 318 316 312 315 308
92 93 93 103 109 114 120 113 123 119 112 114 86 304 294 292 299 324 306 294 298 298 292 300 310 309 309 321 329 328 318 317 318 316 310 306 310 317 318 321 329 311 317
102 102 103 107 105 113 108 118 114 124 125 110 243 280 295 318 318 303 295 299 298 296 306 315 316 321 331 330 326 321 324 320 322 315 311 305 316 321 327 333 317 322 330
110 105 114 110 99 96 115 120 132 117 112 140 293 326 336 322 309 303 302 306 301 306 311 314 317 321 319 317 315 315 314 325 320 317 305 320 320 331 328 318 326 325 313
120 120 119 114 111 98 91 113 117 122 129 14 357 343 327 313 323 313 300 306 306 306 306 309 308 306 311 308 304 304 317 319 323 315 317 323 329 324 319 320 316 312 311
117 125 133 129 130 135 113 111 116 101 57 25 348 325 324 323 316 305 302 306 295 308 316 316 311 310 310 308 315 325 325 326 322 330 331 326 324 320 319 318 314 313 314
128 119 113 117 127 125 125 127 104 81 49 4 325 315 325 330 310 306 309 310 317 322 321 319 317 314 314 318 326 327 329 329 335 341 326 322 320 319 319 317 315 314 315